Year,Month,Day,Hour,Minute,Value (Times are PST for temperature in C)
2019,05,26,00,00,13.80
2019,05,26,00,01,13.80
2019,05,26,00,02,13.80
2019,05,26,00,03,13.80
2019,05,26,00,04,13.80
2019,05,26,00,05,13.80
2019,05,26,00,06,13.80
2019,05,26,00,07,13.80
2019,05,26,00,08,13.80
2019,05,26,00,09,13.70
2019,05,26,00,10,13.70
2019,05,26,00,11,13.70
2019,05,26,00,12,13.70
2019,05,26,00,13,13.70
2019,05,26,00,14,13.70
2019,05,26,00,15,13.70
2019,05,26,00,16,13.60
2019,05,26,00,17,13.60
2019,05,26,00,18,13.60
2019,05,26,00,19,13.60
2019,05,26,00,20,13.60
2019,05,26,00,21,13.60
2019,05,26,00,22,13.50
2019,05,26,00,23,13.50
2019,05,26,00,24,13.50
2019,05,26,00,25,13.40
2019,05,26,00,26,13.40
2019,05,26,00,27,13.30
2019,05,26,00,28,13.30
2019,05,26,00,29,13.30
2019,05,26,00,30,13.30
2019,05,26,00,31,13.30
2019,05,26,00,32,13.30
2019,05,26,00,33,13.30
2019,05,26,00,34,13.30
2019,05,26,00,35,13.20
2019,05,26,00,36,13.20
2019,05,26,00,37,13.20
2019,05,26,00,38,13.20
2019,05,26,00,39,13.20
2019,05,26,00,40,13.20
2019,05,26,00,41,13.10
2019,05,26,00,42,13.10
2019,05,26,00,43,13.10
2019,05,26,00,44,13.10
2019,05,26,00,45,13.10
2019,05,26,00,46,13.00
2019,05,26,00,47,13.00
2019,05,26,00,48,12.90
2019,05,26,00,49,12.90
2019,05,26,00,50,12.90
2019,05,26,00,51,12.90
2019,05,26,00,52,12.80
2019,05,26,00,53,12.80
2019,05,26,00,54,12.80
2019,05,26,00,55,12.80
2019,05,26,00,56,12.80
2019,05,26,00,57,12.80
2019,05,26,00,58,12.80
2019,05,26,00,59,12.80
2019,05,26,01,00,12.80
2019,05,26,01,01,12.70
2019,05,26,01,02,12.70
2019,05,26,01,03,12.70
2019,05,26,01,04,12.70
2019,05,26,01,05,12.70
2019,05,26,01,06,12.70
2019,05,26,01,07,12.70
2019,05,26,01,08,12.60
2019,05,26,01,09,12.60
2019,05,26,01,10,12.60
2019,05,26,01,11,12.60
2019,05,26,01,12,12.60
2019,05,26,01,13,12.50
2019,05,26,01,14,12.50
2019,05,26,01,15,12.50
2019,05,26,01,16,12.40
2019,05,26,01,17,12.40
2019,05,26,01,18,12.40
2019,05,26,01,19,12.30
2019,05,26,01,20,12.30
2019,05,26,01,21,12.30
2019,05,26,01,22,12.30
2019,05,26,01,23,12.20
2019,05,26,01,24,12.20
2019,05,26,01,25,12.20
2019,05,26,01,26,12.20
2019,05,26,01,27,12.10
2019,05,26,01,28,12.10
2019,05,26,01,29,12.10
2019,05,26,01,30,12.10
2019,05,26,01,31,12.10
2019,05,26,01,32,12.10
2019,05,26,01,33,12.00
2019,05,26,01,34,12.00
2019,05,26,01,35,12.00
2019,05,26,01,36,11.90
2019,05,26,01,37,11.90
2019,05,26,01,38,11.90
2019,05,26,01,39,11.90
2019,05,26,01,40,11.80
2019,05,26,01,41,11.80
2019,05,26,01,42,11.80
2019,05,26,01,43,11.80
2019,05,26,01,44,11.80
2019,05,26,01,45,11.80
2019,05,26,01,46,11.80
2019,05,26,01,47,11.70
2019,05,26,01,48,11.70
2019,05,26,01,49,11.70
2019,05,26,01,50,11.70
2019,05,26,01,51,11.70
2019,05,26,01,52,11.60
2019,05,26,01,53,11.60
2019,05,26,01,54,11.60
2019,05,26,01,55,11.50
2019,05,26,01,56,11.50
2019,05,26,01,57,11.50
2019,05,26,01,58,11.40
2019,05,26,01,59,11.40
2019,05,26,02,00,11.40
2019,05,26,02,01,11.40
2019,05,26,02,02,11.30
2019,05,26,02,03,11.30
2019,05,26,02,04,11.30
2019,05,26,02,05,11.30
2019,05,26,02,06,11.30
2019,05,26,02,07,11.30
2019,05,26,02,08,11.20
2019,05,26,02,09,11.20
2019,05,26,02,10,11.20
2019,05,26,02,11,11.20
2019,05,26,02,12,11.20
2019,05,26,02,13,11.20
2019,05,26,02,14,11.10
2019,05,26,02,15,11.10
2019,05,26,02,16,11.10
2019,05,26,02,17,11.10
2019,05,26,02,18,11.10
2019,05,26,02,19,11.00
2019,05,26,02,20,11.00
2019,05,26,02,21,10.90
2019,05,26,02,22,10.90
2019,05,26,02,23,10.90
2019,05,26,02,24,10.90
2019,05,26,02,25,10.80
2019,05,26,02,26,10.80
2019,05,26,02,27,10.80
2019,05,26,02,28,10.80
2019,05,26,02,29,10.80
2019,05,26,02,30,10.80
2019,05,26,02,31,10.80
2019,05,26,02,32,10.80
2019,05,26,02,33,10.80
2019,05,26,02,34,10.80
2019,05,26,02,35,10.80
2019,05,26,02,36,10.80
2019,05,26,02,37,10.80
2019,05,26,02,38,10.80
2019,05,26,02,39,10.80
2019,05,26,02,40,10.80
2019,05,26,02,41,10.80
2019,05,26,02,42,10.80
2019,05,26,02,43,10.80
2019,05,26,02,44,10.80
2019,05,26,02,45,10.80
2019,05,26,02,46,10.80
2019,05,26,02,47,10.80
2019,05,26,02,48,10.80
2019,05,26,02,49,10.90
2019,05,26,02,50,10.90
2019,05,26,02,51,10.90
2019,05,26,02,52,10.90
2019,05,26,02,53,10.90
2019,05,26,02,54,10.90
2019,05,26,02,55,10.90
2019,05,26,02,56,10.90
2019,05,26,02,57,10.90
2019,05,26,02,58,10.90
2019,05,26,02,59,10.90
2019,05,26,03,00,10.90
2019,05,26,03,01,10.90
2019,05,26,03,02,10.90
2019,05,26,03,03,10.90
2019,05,26,03,04,10.90
2019,05,26,03,05,10.90
2019,05,26,03,06,10.90
2019,05,26,03,07,10.90
2019,05,26,03,08,10.90
2019,05,26,03,09,10.90
2019,05,26,03,10,10.90
2019,05,26,03,11,10.90
2019,05,26,03,12,10.80
2019,05,26,03,13,10.80
2019,05,26,03,14,10.80
2019,05,26,03,15,10.80
2019,05,26,03,16,10.80
2019,05,26,03,17,10.80
2019,05,26,03,18,10.80
2019,05,26,03,19,10.80
2019,05,26,03,20,10.80
2019,05,26,03,21,10.80
2019,05,26,03,22,10.80
2019,05,26,03,23,10.80
2019,05,26,03,24,10.80
2019,05,26,03,25,10.80
2019,05,26,03,26,10.90
2019,05,26,03,27,10.90
2019,05,26,03,28,10.90
2019,05,26,03,29,10.90
2019,05,26,03,30,10.90
2019,05,26,03,31,10.90
2019,05,26,03,32,10.90
2019,05,26,03,33,10.80
2019,05,26,03,34,10.80
2019,05,26,03,35,10.80
2019,05,26,03,36,10.80
2019,05,26,03,37,10.80
2019,05,26,03,38,10.80
2019,05,26,03,39,10.80
2019,05,26,03,40,10.80
2019,05,26,03,41,10.70
2019,05,26,03,42,10.70
2019,05,26,03,43,10.70
2019,05,26,03,44,10.70
2019,05,26,03,45,10.70
2019,05,26,03,46,10.70
2019,05,26,03,47,10.70
2019,05,26,03,48,10.70
2019,05,26,03,49,10.70
2019,05,26,03,50,10.70
2019,05,26,03,51,10.70
2019,05,26,03,52,10.70
2019,05,26,03,53,10.70
2019,05,26,03,54,10.70
2019,05,26,03,55,10.70
2019,05,26,03,56,10.70
2019,05,26,03,57,10.70
2019,05,26,03,58,10.70
2019,05,26,03,59,10.70
2019,05,26,04,00,10.70
2019,05,26,04,01,10.70
2019,05,26,04,02,10.80
2019,05,26,04,03,10.80
2019,05,26,04,04,10.80
2019,05,26,04,05,10.80
2019,05,26,04,06,10.80
2019,05,26,04,07,10.80
2019,05,26,04,08,10.80
2019,05,26,04,09,10.80
2019,05,26,04,10,10.90
2019,05,26,04,11,10.90
2019,05,26,04,12,10.90
2019,05,26,04,13,10.90
2019,05,26,04,14,10.90
2019,05,26,04,15,10.90
2019,05,26,04,16,11.00
2019,05,26,04,17,11.00
2019,05,26,04,18,11.10
2019,05,26,04,19,11.10
2019,05,26,04,20,11.10
2019,05,26,04,21,11.20
2019,05,26,04,22,11.20
2019,05,26,04,23,11.30
2019,05,26,04,24,11.30
2019,05,26,04,25,11.30
2019,05,26,04,26,11.40
2019,05,26,04,27,11.40
2019,05,26,04,28,11.50
2019,05,26,04,29,11.50
2019,05,26,04,30,11.60
2019,05,26,04,31,11.60
2019,05,26,04,32,11.60
2019,05,26,04,33,11.70
2019,05,26,04,34,11.70
2019,05,26,04,35,11.80
2019,05,26,04,36,11.80
2019,05,26,04,37,11.80
2019,05,26,04,38,11.90
2019,05,26,04,39,12.00
2019,05,26,04,40,12.00
2019,05,26,04,41,12.10
2019,05,26,04,42,12.10
2019,05,26,04,43,12.20
2019,05,26,04,44,12.20
2019,05,26,04,45,12.20
2019,05,26,04,46,12.20
2019,05,26,04,47,12.20
2019,05,26,04,48,12.30
2019,05,26,04,49,12.30
2019,05,26,04,50,12.30
2019,05,26,04,51,12.30
2019,05,26,04,52,12.30
2019,05,26,04,53,12.30
2019,05,26,04,54,12.30
2019,05,26,04,55,12.30
2019,05,26,04,56,12.40
2019,05,26,04,57,12.40
2019,05,26,04,58,12.40
2019,05,26,04,59,12.40
2019,05,26,05,00,12.40
2019,05,26,05,01,12.40
2019,05,26,05,02,12.30
2019,05,26,05,03,12.30
2019,05,26,05,04,12.30
2019,05,26,05,05,12.30
2019,05,26,05,06,12.30
2019,05,26,05,07,12.30
2019,05,26,05,08,12.30
2019,05,26,05,09,12.30
2019,05,26,05,10,12.30
2019,05,26,05,11,12.30
2019,05,26,05,12,12.30
2019,05,26,05,13,12.30
2019,05,26,05,14,12.30
2019,05,26,05,15,12.40
2019,05,26,05,16,12.40
2019,05,26,05,17,12.40
2019,05,26,05,18,12.30
2019,05,26,05,19,12.30
2019,05,26,05,20,12.30
2019,05,26,05,21,12.30
2019,05,26,05,22,12.30
2019,05,26,05,23,12.40
2019,05,26,05,24,12.40
2019,05,26,05,25,12.40
2019,05,26,05,26,12.40
2019,05,26,05,27,12.40
2019,05,26,05,28,12.40
2019,05,26,05,29,12.50
2019,05,26,05,30,12.50
2019,05,26,05,31,12.60
2019,05,26,05,32,12.60
2019,05,26,05,33,12.60
2019,05,26,05,34,12.60
2019,05,26,05,35,12.60
2019,05,26,05,36,12.60
2019,05,26,05,37,12.70
2019,05,26,05,38,12.70
2019,05,26,05,39,12.80
2019,05,26,05,40,12.80
2019,05,26,05,41,12.80
2019,05,26,05,42,12.80
2019,05,26,05,43,12.80
2019,05,26,05,44,12.90
2019,05,26,05,45,12.90
2019,05,26,05,46,12.90
2019,05,26,05,47,12.90
2019,05,26,05,48,12.90
2019,05,26,05,49,12.90
2019,05,26,05,50,12.90
2019,05,26,05,51,12.90
2019,05,26,05,52,12.90
2019,05,26,05,53,12.90
2019,05,26,05,54,12.90
2019,05,26,05,55,12.90
2019,05,26,05,56,12.90
2019,05,26,05,57,12.90
2019,05,26,05,58,12.90
2019,05,26,05,59,12.80
2019,05,26,06,00,12.80
2019,05,26,06,01,12.80
2019,05,26,06,02,12.80
2019,05,26,06,03,12.80
2019,05,26,06,04,12.80
2019,05,26,06,05,12.80
2019,05,26,06,06,12.80
2019,05,26,06,07,12.80
2019,05,26,06,08,12.80
2019,05,26,06,09,12.90
2019,05,26,06,10,12.90
2019,05,26,06,11,12.90
2019,05,26,06,12,12.90
2019,05,26,06,13,12.90
2019,05,26,06,14,12.90
2019,05,26,06,15,13.00
2019,05,26,06,16,13.00
2019,05,26,06,17,13.10
2019,05,26,06,18,13.10
2019,05,26,06,19,13.10
2019,05,26,06,20,13.20
2019,05,26,06,21,13.20
2019,05,26,06,22,13.30
2019,05,26,06,23,13.30
2019,05,26,06,24,13.40
2019,05,26,06,25,13.40
2019,05,26,06,26,13.50
2019,05,26,06,27,13.50
2019,05,26,06,28,13.60
2019,05,26,06,29,13.60
2019,05,26,06,30,13.70
2019,05,26,06,31,13.70
2019,05,26,06,32,13.80
2019,05,26,06,33,13.80
2019,05,26,06,34,13.90
2019,05,26,06,35,13.90
2019,05,26,06,36,13.90
2019,05,26,06,37,14.00
2019,05,26,06,38,14.00
2019,05,26,06,39,14.10
2019,05,26,06,40,14.10
2019,05,26,06,41,14.20
2019,05,26,06,42,14.20
2019,05,26,06,43,14.30
2019,05,26,06,44,14.30
2019,05,26,06,45,14.40
2019,05,26,06,46,14.40
2019,05,26,06,47,14.50
2019,05,26,06,48,14.60
2019,05,26,06,49,14.60
2019,05,26,06,50,14.70
2019,05,26,06,51,14.80
2019,05,26,06,52,15.00
2019,05,26,06,53,15.00
2019,05,26,06,54,15.00
2019,05,26,06,55,15.00
2019,05,26,06,56,15.00
2019,05,26,06,57,15.10
2019,05,26,06,58,15.20
2019,05,26,06,59,15.30
2019,05,26,07,00,15.30
2019,05,26,07,01,15.40
2019,05,26,07,02,15.40
2019,05,26,07,03,15.50
2019,05,26,07,04,15.50
2019,05,26,07,05,15.60
2019,05,26,07,06,15.60
2019,05,26,07,07,15.70
2019,05,26,07,08,15.70
2019,05,26,07,09,15.80
2019,05,26,07,10,15.80
2019,05,26,07,11,15.80
2019,05,26,07,12,15.90
2019,05,26,07,13,15.90
2019,05,26,07,14,15.90
2019,05,26,07,15,15.90
2019,05,26,07,16,16.00
2019,05,26,07,17,16.00
2019,05,26,07,18,16.10
2019,05,26,07,19,16.10
2019,05,26,07,20,16.20
2019,05,26,07,21,16.20
2019,05,26,07,22,16.20
2019,05,26,07,23,16.20
2019,05,26,07,24,16.20
2019,05,26,07,25,16.30
2019,05,26,07,26,16.30
2019,05,26,07,27,16.40
2019,05,26,07,28,16.40
2019,05,26,07,29,16.50
2019,05,26,07,30,16.60
2019,05,26,07,31,16.60
2019,05,26,07,32,16.60
2019,05,26,07,33,16.70
2019,05,26,07,34,16.70
2019,05,26,07,35,16.70
2019,05,26,07,36,16.80
2019,05,26,07,37,16.80
2019,05,26,07,38,16.80
2019,05,26,07,39,16.80
2019,05,26,07,40,16.80
2019,05,26,07,41,16.90
2019,05,26,07,42,16.90
2019,05,26,07,43,16.90
2019,05,26,07,44,16.90
2019,05,26,07,45,16.90
2019,05,26,07,46,17.00
2019,05,26,07,47,17.00
2019,05,26,07,48,17.10
2019,05,26,07,49,17.20
2019,05,26,07,50,17.20
2019,05,26,07,51,17.20
2019,05,26,07,52,17.20
2019,05,26,07,53,17.20
2019,05,26,07,54,17.10
2019,05,26,07,55,17.10
2019,05,26,07,56,17.10
2019,05,26,07,57,17.10
2019,05,26,07,58,17.20
2019,05,26,07,59,17.20
2019,05,26,08,00,17.20
2019,05,26,08,01,17.20
2019,05,26,08,02,17.20
2019,05,26,08,03,17.20
2019,05,26,08,04,17.20
2019,05,26,08,05,17.20
2019,05,26,08,06,17.30
2019,05,26,08,07,17.30
2019,05,26,08,08,17.40
2019,05,26,08,09,17.50
2019,05,26,08,10,17.60
2019,05,26,08,11,17.60
2019,05,26,08,12,17.70
2019,05,26,08,13,17.70
2019,05,26,08,14,17.80
2019,05,26,08,15,17.80
2019,05,26,08,16,17.90
2019,05,26,08,17,17.90
2019,05,26,08,18,18.00
2019,05,26,08,19,18.10
2019,05,26,08,20,18.20
2019,05,26,08,21,18.30
2019,05,26,08,22,18.30
2019,05,26,08,23,18.30
2019,05,26,08,24,18.30
2019,05,26,08,25,18.30
2019,05,26,08,26,18.30
2019,05,26,08,27,18.40
2019,05,26,08,28,18.50
2019,05,26,08,29,18.60
2019,05,26,08,30,18.70
2019,05,26,08,31,18.80
2019,05,26,08,32,18.80
2019,05,26,08,33,18.90
2019,05,26,08,34,18.90
2019,05,26,08,35,18.80
2019,05,26,08,36,18.80
2019,05,26,08,37,18.80
2019,05,26,08,38,18.80
2019,05,26,08,39,18.80
2019,05,26,08,40,18.80
2019,05,26,08,41,18.80
2019,05,26,08,42,18.80
2019,05,26,08,43,18.80
2019,05,26,08,44,18.80
2019,05,26,08,45,18.70
2019,05,26,08,46,18.70
2019,05,26,08,47,18.80
2019,05,26,08,48,18.80
2019,05,26,08,49,18.80
2019,05,26,08,50,18.90
2019,05,26,08,51,18.90
2019,05,26,08,52,18.90
2019,05,26,08,53,18.90
2019,05,26,08,54,18.90
2019,05,26,08,55,18.90
2019,05,26,08,56,18.90
2019,05,26,08,57,18.90
2019,05,26,08,58,18.90
2019,05,26,08,59,18.90
2019,05,26,09,00,18.90
2019,05,26,09,01,18.90
2019,05,26,09,02,18.80
2019,05,26,09,03,18.80
2019,05,26,09,04,18.80
2019,05,26,09,05,18.90
2019,05,26,09,06,18.90
2019,05,26,09,07,19.00
2019,05,26,09,08,19.10
2019,05,26,09,09,19.20
2019,05,26,09,10,19.30
2019,05,26,09,11,19.30
2019,05,26,09,12,19.30
2019,05,26,09,13,19.30
2019,05,26,09,14,19.30
2019,05,26,09,15,19.30
2019,05,26,09,16,19.30
2019,05,26,09,17,19.40
2019,05,26,09,18,19.40
2019,05,26,09,19,19.50
2019,05,26,09,20,19.50
2019,05,26,09,21,19.60
2019,05,26,09,22,19.60
2019,05,26,09,23,19.60
2019,05,26,09,24,19.50
2019,05,26,09,25,19.50
2019,05,26,09,26,19.50
2019,05,26,09,27,19.50
2019,05,26,09,28,19.60
2019,05,26,09,29,19.50
2019,05,26,09,30,19.50
2019,05,26,09,31,19.50
2019,05,26,09,32,19.50
2019,05,26,09,33,19.50
2019,05,26,09,34,19.40
2019,05,26,09,35,19.50
2019,05,26,09,36,19.50
2019,05,26,09,37,19.60
2019,05,26,09,38,19.60
2019,05,26,09,39,19.70
2019,05,26,09,40,19.70
2019,05,26,09,41,19.70
2019,05,26,09,42,19.80
2019,05,26,09,43,19.90
2019,05,26,09,44,19.90
2019,05,26,09,45,20.00
2019,05,26,09,46,20.00
2019,05,26,09,47,20.00
2019,05,26,09,48,20.10
2019,05,26,09,49,20.10
2019,05,26,09,50,20.10
2019,05,26,09,51,20.10
2019,05,26,09,52,20.10
2019,05,26,09,53,20.00
2019,05,26,09,54,20.00
2019,05,26,09,55,20.00
2019,05,26,09,56,20.00
2019,05,26,09,57,20.00
2019,05,26,09,58,20.00
2019,05,26,09,59,19.90
2019,05,26,10,00,19.90
2019,05,26,10,01,19.90
2019,05,26,10,02,19.90
2019,05,26,10,03,19.90
2019,05,26,10,04,19.90
2019,05,26,10,05,19.80
2019,05,26,10,06,19.80
2019,05,26,10,07,19.80
2019,05,26,10,08,19.80
2019,05,26,10,09,19.90
2019,05,26,10,10,20.00
2019,05,26,10,11,20.00
2019,05,26,10,12,20.10
2019,05,26,10,13,20.20
2019,05,26,10,14,20.30
2019,05,26,10,15,20.30
2019,05,26,10,16,20.40
2019,05,26,10,17,20.50
2019,05,26,10,18,20.70
2019,05,26,10,19,20.80
2019,05,26,10,20,20.90
2019,05,26,10,21,21.00
2019,05,26,10,22,21.10
2019,05,26,10,23,21.20
2019,05,26,10,24,21.20
2019,05,26,10,25,21.20
2019,05,26,10,26,21.20
2019,05,26,10,27,21.10
2019,05,26,10,28,21.20
2019,05,26,10,29,21.20
2019,05,26,10,30,21.20
2019,05,26,10,31,21.20
2019,05,26,10,32,21.20
2019,05,26,10,33,21.20
2019,05,26,10,34,21.20
2019,05,26,10,35,21.20
2019,05,26,10,36,21.30
2019,05,26,10,37,21.40
2019,05,26,10,38,21.50
2019,05,26,10,39,21.60
2019,05,26,10,40,21.60
2019,05,26,10,41,21.60
2019,05,26,10,42,21.60
2019,05,26,10,43,21.50
2019,05,26,10,44,21.50
2019,05,26,10,45,21.50
2019,05,26,10,46,21.40
2019,05,26,10,47,21.40
2019,05,26,10,48,21.50
2019,05,26,10,49,21.50
2019,05,26,10,50,21.50
2019,05,26,10,51,21.50
2019,05,26,10,52,21.40
2019,05,26,10,53,21.40
2019,05,26,10,54,21.30
2019,05,26,10,55,21.30
2019,05,26,10,56,21.30
2019,05,26,10,57,21.30
2019,05,26,10,58,21.40
2019,05,26,10,59,21.40
2019,05,26,11,00,21.50
2019,05,26,11,01,21.50
2019,05,26,11,02,21.60
2019,05,26,11,03,21.70
2019,05,26,11,04,21.70
2019,05,26,11,05,21.80
2019,05,26,11,06,21.80
2019,05,26,11,07,21.80
2019,05,26,11,08,21.80
2019,05,26,11,09,21.70
2019,05,26,11,10,21.70
2019,05,26,11,11,21.60
2019,05,26,11,12,21.60
2019,05,26,11,13,21.70
2019,05,26,11,14,21.80
2019,05,26,11,15,21.80
2019,05,26,11,16,22.00
2019,05,26,11,17,22.10
2019,05,26,11,18,22.20
2019,05,26,11,19,22.30
2019,05,26,11,20,22.30
2019,05,26,11,21,22.30
2019,05,26,11,22,22.30
2019,05,26,11,23,22.30
2019,05,26,11,24,22.30
2019,05,26,11,25,22.30
2019,05,26,11,26,22.20
2019,05,26,11,27,22.20
2019,05,26,11,28,22.30
2019,05,26,11,29,22.30
2019,05,26,11,30,22.40
2019,05,26,11,31,22.40
2019,05,26,11,32,22.40
2019,05,26,11,33,22.40
2019,05,26,11,34,22.40
2019,05,26,11,35,22.40
2019,05,26,11,36,22.30
2019,05,26,11,37,22.30
2019,05,26,11,38,22.20
2019,05,26,11,39,22.10
2019,05,26,11,40,22.00
2019,05,26,11,41,22.00
2019,05,26,11,42,21.90
2019,05,26,11,43,21.90
2019,05,26,11,44,21.90
2019,05,26,11,45,21.80
2019,05,26,11,46,21.80
2019,05,26,11,47,21.80
2019,05,26,11,48,21.80
2019,05,26,11,49,21.80
2019,05,26,11,50,21.70
2019,05,26,11,51,21.70
2019,05,26,11,52,21.70
2019,05,26,11,53,21.60
2019,05,26,11,54,21.60
2019,05,26,11,55,21.60
2019,05,26,11,56,21.60
2019,05,26,11,57,21.60
2019,05,26,11,58,21.70
2019,05,26,11,59,21.70
2019,05,26,12,00,21.80
2019,05,26,12,01,21.80
2019,05,26,12,02,21.90
2019,05,26,12,03,21.90
2019,05,26,12,04,22.00
2019,05,26,12,05,22.00
2019,05,26,12,06,22.00
2019,05,26,12,07,21.90
2019,05,26,12,08,21.90
2019,05,26,12,09,21.90
2019,05,26,12,10,21.90
2019,05,26,12,11,21.90
2019,05,26,12,12,21.90
2019,05,26,12,13,21.90
2019,05,26,12,14,21.80
2019,05,26,12,15,21.80
2019,05,26,12,16,21.80
2019,05,26,12,17,21.80
2019,05,26,12,18,21.90
2019,05,26,12,19,21.90
2019,05,26,12,20,21.90
2019,05,26,12,21,22.00
2019,05,26,12,22,22.00
2019,05,26,12,23,22.10
2019,05,26,12,24,22.10
2019,05,26,12,25,22.10
2019,05,26,12,26,22.10
2019,05,26,12,27,22.20
2019,05,26,12,28,22.30
2019,05,26,12,29,22.40
2019,05,26,12,30,22.40
2019,05,26,12,31,22.40
2019,05,26,12,32,22.50
2019,05,26,12,33,22.50
2019,05,26,12,34,22.60
2019,05,26,12,35,22.50
2019,05,26,12,36,22.50
2019,05,26,12,37,22.50
2019,05,26,12,38,22.40
2019,05,26,12,39,22.40
2019,05,26,12,40,22.40
2019,05,26,12,41,22.40
2019,05,26,12,42,22.40
2019,05,26,12,43,22.40
2019,05,26,12,44,22.30
2019,05,26,12,45,22.30
2019,05,26,12,46,22.30
2019,05,26,12,47,22.20
2019,05,26,12,48,22.20
2019,05,26,12,49,22.20
2019,05,26,12,50,22.20
2019,05,26,12,51,22.30
2019,05,26,12,52,22.30
2019,05,26,12,53,22.30
2019,05,26,12,54,22.30
2019,05,26,12,55,22.40
2019,05,26,12,56,22.40
2019,05,26,12,57,22.40
2019,05,26,12,58,22.40
2019,05,26,12,59,22.50
2019,05,26,13,00,22.50
2019,05,26,13,01,22.40
2019,05,26,13,02,22.40
2019,05,26,13,03,22.40
2019,05,26,13,04,22.30
2019,05,26,13,05,22.40
2019,05,26,13,06,22.40
2019,05,26,13,07,22.40
2019,05,26,13,08,22.40
2019,05,26,13,09,22.40
2019,05,26,13,10,22.40
2019,05,26,13,11,22.50
2019,05,26,13,12,22.60
2019,05,26,13,13,22.60
2019,05,26,13,14,22.70
2019,05,26,13,15,22.80
2019,05,26,13,16,22.80
2019,05,26,13,17,22.80
2019,05,26,13,18,22.70
2019,05,26,13,19,22.70
2019,05,26,13,20,22.60
2019,05,26,13,21,22.50
2019,05,26,13,22,22.50
2019,05,26,13,23,22.50
2019,05,26,13,24,22.60
2019,05,26,13,25,22.60
2019,05,26,13,26,22.60
2019,05,26,13,27,22.70
2019,05,26,13,28,22.70
2019,05,26,13,29,22.70
2019,05,26,13,30,22.70
2019,05,26,13,31,22.70
2019,05,26,13,32,22.80
2019,05,26,13,33,22.80
2019,05,26,13,34,22.80
2019,05,26,13,35,22.80
2019,05,26,13,36,22.80
2019,05,26,13,37,22.90
2019,05,26,13,38,22.90
2019,05,26,13,39,22.90
2019,05,26,13,40,22.80
2019,05,26,13,41,22.80
2019,05,26,13,42,22.70
2019,05,26,13,43,22.60
2019,05,26,13,44,22.60
2019,05,26,13,45,22.60
2019,05,26,13,46,22.60
2019,05,26,13,47,22.70
2019,05,26,13,48,22.70
2019,05,26,13,49,22.80
2019,05,26,13,50,22.80
2019,05,26,13,51,22.80
2019,05,26,13,52,22.70
2019,05,26,13,53,22.70
2019,05,26,13,54,22.60
2019,05,26,13,55,22.60
2019,05,26,13,56,22.50
2019,05,26,13,57,22.50
2019,05,26,13,58,22.50
2019,05,26,13,59,22.50
2019,05,26,14,00,22.50
2019,05,26,14,01,22.50
2019,05,26,14,02,22.60
2019,05,26,14,03,22.60
2019,05,26,14,04,22.70
2019,05,26,14,05,22.80
2019,05,26,14,06,22.80
2019,05,26,14,07,22.90
2019,05,26,14,08,22.90
2019,05,26,14,09,23.00
2019,05,26,14,10,23.00
2019,05,26,14,11,23.10
2019,05,26,14,12,23.20
2019,05,26,14,13,23.30
2019,05,26,14,14,23.30
2019,05,26,14,15,23.40
2019,05,26,14,16,23.40
2019,05,26,14,17,23.50
2019,05,26,14,18,23.50
2019,05,26,14,19,23.50
2019,05,26,14,20,23.60
2019,05,26,14,21,23.60
2019,05,26,14,22,23.60
2019,05,26,14,23,23.70
2019,05,26,14,24,23.70
2019,05,26,14,25,23.70
2019,05,26,14,26,23.70
2019,05,26,14,27,23.80
2019,05,26,14,28,23.80
2019,05,26,14,29,23.90
2019,05,26,14,30,23.90
2019,05,26,14,31,23.90
2019,05,26,14,32,23.90
2019,05,26,14,33,23.90
2019,05,26,14,34,23.90
2019,05,26,14,35,23.90
2019,05,26,14,36,23.90
2019,05,26,14,37,23.90
2019,05,26,14,38,23.90
2019,05,26,14,39,24.00
2019,05,26,14,40,24.10
2019,05,26,14,41,24.10
2019,05,26,14,42,24.20
2019,05,26,14,43,24.30
2019,05,26,14,44,24.30
2019,05,26,14,45,24.30
2019,05,26,14,46,24.30
2019,05,26,14,47,24.30
2019,05,26,14,48,24.30
2019,05,26,14,49,24.40
2019,05,26,14,50,24.40
2019,05,26,14,51,24.50
2019,05,26,14,52,24.60
2019,05,26,14,53,24.70
2019,05,26,14,54,24.80
2019,05,26,14,55,24.90
2019,05,26,14,56,24.90
2019,05,26,14,57,24.90
2019,05,26,14,58,24.90
2019,05,26,14,59,24.80
2019,05,26,15,00,24.70
2019,05,26,15,01,24.70
2019,05,26,15,02,24.60
2019,05,26,15,03,24.60
2019,05,26,15,04,24.60
2019,05,26,15,05,24.60
2019,05,26,15,06,24.50
2019,05,26,15,07,24.40
2019,05,26,15,08,24.30
2019,05,26,15,09,24.20
2019,05,26,15,10,24.20
2019,05,26,15,11,24.30
2019,05,26,15,12,24.30
2019,05,26,15,13,24.30
2019,05,26,15,14,24.40
2019,05,26,15,15,24.50
2019,05,26,15,16,24.50
2019,05,26,15,17,24.60
2019,05,26,15,18,24.60
2019,05,26,15,19,24.70
2019,05,26,15,20,24.70
2019,05,26,15,21,24.70
2019,05,26,15,22,24.70
2019,05,26,15,23,24.70
2019,05,26,15,24,24.70
2019,05,26,15,25,24.70
2019,05,26,15,26,24.70
2019,05,26,15,27,24.70
2019,05,26,15,28,24.70
2019,05,26,15,29,24.70
2019,05,26,15,30,24.70
2019,05,26,15,31,24.70
2019,05,26,15,32,24.80
2019,05,26,15,33,24.80
2019,05,26,15,34,24.90
2019,05,26,15,35,24.90
2019,05,26,15,36,25.00
2019,05,26,15,37,25.10
2019,05,26,15,38,25.20
2019,05,26,15,39,25.20
2019,05,26,15,40,25.20
2019,05,26,15,41,25.30
2019,05,26,15,42,25.30
2019,05,26,15,43,25.40
2019,05,26,15,44,25.40
2019,05,26,15,45,25.50
2019,05,26,15,46,25.60
2019,05,26,15,47,25.70
2019,05,26,15,48,25.70
2019,05,26,15,49,25.70
2019,05,26,15,50,25.70
2019,05,26,15,51,25.80
2019,05,26,15,52,25.80
2019,05,26,15,53,25.80
2019,05,26,15,54,25.80
2019,05,26,15,55,25.80
2019,05,26,15,56,25.80
2019,05,26,15,57,25.80
2019,05,26,15,58,25.80
2019,05,26,15,59,25.80
2019,05,26,16,00,25.70
2019,05,26,16,01,25.60
2019,05,26,16,02,25.50
2019,05,26,16,03,25.40
2019,05,26,16,04,25.30
2019,05,26,16,05,25.20
2019,05,26,16,06,25.10
2019,05,26,16,07,25.00
2019,05,26,16,08,24.90
2019,05,26,16,09,24.90
2019,05,26,16,10,24.80
2019,05,26,16,11,24.80
2019,05,26,16,12,24.70
2019,05,26,16,13,24.70
2019,05,26,16,14,24.60
2019,05,26,16,15,24.60
2019,05,26,16,16,24.50
2019,05,26,16,17,24.50
2019,05,26,16,18,24.50
2019,05,26,16,19,24.40
2019,05,26,16,20,24.40
2019,05,26,16,21,24.40
2019,05,26,16,22,24.40
2019,05,26,16,23,24.40
2019,05,26,16,24,24.40
2019,05,26,16,25,24.40
2019,05,26,16,26,24.40
2019,05,26,16,27,24.40
2019,05,26,16,28,24.40
2019,05,26,16,29,24.40
2019,05,26,16,30,24.50
2019,05,26,16,31,24.50
2019,05,26,16,32,24.60
2019,05,26,16,33,24.70
2019,05,26,16,34,24.90
2019,05,26,16,35,25.00
2019,05,26,16,36,25.10
2019,05,26,16,37,25.30
2019,05,26,16,38,25.50
2019,05,26,16,39,25.70
2019,05,26,16,40,25.80
2019,05,26,16,41,25.90
2019,05,26,16,42,25.90
2019,05,26,16,43,25.90
2019,05,26,16,44,26.10
2019,05,26,16,45,26.20
2019,05,26,16,46,26.30
2019,05,26,16,47,26.30
2019,05,26,16,48,26.40
2019,05,26,16,49,26.50
2019,05,26,16,50,26.60
2019,05,26,16,51,26.60
2019,05,26,16,52,26.70
2019,05,26,16,53,26.80
2019,05,26,16,54,26.80
2019,05,26,16,55,26.80
2019,05,26,16,56,26.80
2019,05,26,16,57,26.90
2019,05,26,16,58,26.90
2019,05,26,16,59,26.90
2019,05,26,17,00,26.90
2019,05,26,17,01,26.90
2019,05,26,17,02,26.90
2019,05,26,17,03,26.90
2019,05,26,17,04,26.90
2019,05,26,17,05,26.90
2019,05,26,17,06,26.90
2019,05,26,17,07,26.90
2019,05,26,17,08,26.90
2019,05,26,17,09,26.90
2019,05,26,17,10,26.90
2019,05,26,17,11,26.90
2019,05,26,17,12,26.90
2019,05,26,17,13,27.00
2019,05,26,17,14,27.00
2019,05,26,17,15,27.10
2019,05,26,17,16,27.10
2019,05,26,17,17,27.20
2019,05,26,17,18,27.20
2019,05,26,17,19,27.20